Flag for Canada Weather past 2 weeks in Markham, Ontario, Canada

Now
27 °F

Sunny.


Feels Like: 15 °F
Forecast: N/A
Wind: 14 mph from Northwest

Location: Toronto Buttonville

Current Time: Mar 28, 2015 at 7:19:55 PM

Latest Report: Mar 28, 2015 at 6:00 PM


Visibility: 15 mi

Pressure: 30.20 "Hg

Humidity: 46%

Dew point: 9 °F

Location of MarkhamLocation

Historic Weather in Markham — Graph

°F

Markham temperature yesterday

Maximum temperature yesterday: 34 °F (at 12:00 AM)
Minimum temperature yesterday: 19 °F (at 8:00 PM)
Average temperature yesterday: 26 °F

Past Weeks' High & Low Weather Summary

 TemperatureHumidityPressure
High50 °F (Mar 16, 4:00 PM)100% (Mar 14, 5:00 AM)30.43 "Hg (Mar 14, 5:00 AM)
Low10 °F (Mar 23, 7:00 AM)25% (Mar 19, 2:00 PM)29.68 "Hg (Mar 17, 2:00 AM)
Average30 °F65%30.08 "Hg
* Reported Mar 13 6:00 PM — Mar 28 6:00 PM, Markham, Weather by CustomWeather, © 2015

Note: Actual official high and low records may vary slightly from our data, if they occured in-between our weather recording intervals... More about our weather records

Advertising

Markham weather history for previous 24 hours

 ConditionsComfort  
Time TempWeatherWind HumidityBarometerVisibility
6:00 PM
Sat, Mar 28
27 °FSunny.14 mph46%30.20 "Hg15 mi
5:00 PM27 °FSunny.12 mph43%30.19 "Hg15 mi
4:00 PM27 °FSunny.10 mph36%30.18 "Hg15 mi
3:00 PM27 °FSunny.15 mph39%30.18 "Hg15 mi
2:00 PM25 °FSunny.12 mph33%30.19 "Hg15 mi
1:00 PM25 °FSunny.21 mph33%30.20 "Hg15 mi
12:00 PM21 °FSunny.15 mph38%30.21 "Hg15 mi
11:00 AM19 °FSunny.17 mph42%30.22 "Hg15 mi
10:00 AM18 °FPassing clouds.15 mph41%30.21 "Hg15 mi
9:00 AM16 °FPassing clouds.13 mph48%30.20 "Hg15 mi
8:00 AM12 °FPassing clouds.10 mph57%30.18 "Hg15 mi
7:00 AM12 °FPassing clouds.10 mph62%30.16 "Hg15 mi
6:00 AM12 °FPassing clouds.8 mph67%30.14 "Hg15 mi
5:00 AM14 °FPassing clouds.12 mph57%30.12 "Hg15 mi
4:00 AM14 °FPassing clouds.15 mph57%30.11 "Hg15 mi
3:00 AM16 °FPassing clouds.14 mph62%30.09 "Hg15 mi
2:00 AM16 °FPassing clouds.14 mph57%30.09 "Hg15 mi
1:00 AM18 °FPassing clouds.13 mph53%30.08 "Hg15 mi
12:00 AM19 °FPassing clouds.16 mph53%30.07 "Hg15 mi
11:00 PM
Fri, Mar 27
19 °FPassing clouds.15 mph53%30.05 "Hg15 mi
10:00 PM19 °FPassing clouds.12 mph63%30.04 "Hg15 mi
9:00 PM19 °FSnow flurries. Passing clouds.13 mph63%30.03 "Hg14 mi
8:00 PM19 °FCloudy.14 mph68%30.01 "Hg15 mi
7:00 PM21 °FPartly sunny.15 mph63%29.99 "Hg15 mi
Weather by CustomWeather, © 2015

See weather overviewHow to use our weather pages